Simultaneous Nadir Overpasses (SNOs) Predictions

Prediction of SNOs between AQUA and METOP-B Satellite Orbit:

Table of predicted SNOs for the next 14.0 days since TLE Epoch: 4/17/2015
Index Date (AQUA) Time (AQUA) Lat,Lon (AQUA) SZA (AQUA ) Date (METOP-B) Time (METOP-B) Lat,Lon (METOP-B) SZA (METOP-B ) Distance(km) Time Diff (sec)
1 04/17/2015 18:55:54 -73.75, 70.69 116.83 04/17/2015 18:54:55 -73.74, 70.73 116.84 2.16 59
2 04/17/2015 19:45:22 73.78,-121.74 63.19 04/17/2015 19:45:33 73.81,-121.77 63.22 2.79 11
3 04/17/2015 20:34:57 -74.26, 44.81 116.31 04/17/2015 20:36:06 -74.26, 46.67 116.37 55.92 69
4 04/20/2015 14:30:08 -73.73, 137.17 117.83 04/20/2015 14:29:16 -73.76, 137.18 117.80 2.70 52
5 04/20/2015 15:19:37 73.82, -55.39 62.25 04/20/2015 15:19:54 73.82, -55.32 62.25 2.23 17
6 04/20/2015 16:09:17 -74.55, 110.55 116.98 04/20/2015 16:10:22 -74.52, 113.75 117.10 94.97 65
7 04/23/2015 10:04:21 -73.76,-156.44 118.76 04/23/2015 10:03:38 -73.76,-156.39 118.75 1.70 43
8 04/23/2015 10:53:49 73.80, 11.10 61.28 04/23/2015 10:54:16 73.83, 11.10 61.30 2.97 27
9 04/26/2015 05:38:31 -73.77, -90.01 119.67 04/26/2015 05:38:00 -73.76, -89.99 119.68 1.52 31
10 04/26/2015 06:27:59 73.82, 77.51 60.37 04/26/2015 06:28:38 73.82, 77.49 60.37 0.47 39
11 04/29/2015 00:22:58 73.10, 170.23 58.73 04/29/2015 00:21:52 73.07, 167.55 58.80 86.63 66
12 04/29/2015 01:12:37 -73.78, -23.56 120.56 04/29/2015 01:12:20 -73.79, -23.50 120.55 2.49 17
13 04/29/2015 02:02:05 73.84, 143.95 59.49 04/29/2015 02:02:58 73.85, 143.98 59.50 2.12 53




NCC Satellite Simultaneous Nadir Overpasses (SNOs) Prediction Service
